Flag for Germany Weather past 2 weeks in Leutkirch im Allgäu, Baden-Württemberg, Germany

Now
64 °F

Light rain. Overcast.


Feels Like: 64 °F
Forecast: 56 / 73 °F
Wind: 2 mph from North

Location: Kempten

Current Time: Jul 22, 2014 at 5:07:33 PM

Latest Report: Jul 22, 2014 at 4:00 PM


Visibility: 3 mi

Pressure: 29.90 "Hg

Humidity: 92%

Dew point: 62 °F

Location of Leutkirch im AllgäuLocation

Historic Weather in Leutkirch im Allgäu — Graph

°F

Leutkirch im Allgäu temperature yesterday

Maximum temperature yesterday: 65 °F (at 1:00 AM)
Minimum temperature yesterday: 57 °F (at 8:00 AM)
Average temperature yesterday: 59 °F

Past Weeks' High & Low Weather Summary

 TemperatureHumidityPressure
High88 °F (Jul 19, 4:00 PM)99% (Jul 13, 4:00 AM)30.22 "Hg (Jul 13, 4:00 AM)
Low48 °F (Jul 10, 5:00 AM)24% (Jul 19, 6:00 PM)29.76 "Hg (Jul 20, 7:00 PM)
Average62 °F80%29.95 "Hg
* Reported Jul 7 4:00 PM — Jul 22 4:00 PM, Leutkirch im Allgäu, Weather by CustomWeather, © 2014

Note: Actual official high and low records may vary slightly from our data, if they occured in-between our weather recording intervals... More about our weather records

Advertising

Leutkirch im Allgäu weather history for previous 24 hours

 ConditionsComfort  
Time TempWeatherWind HumidityBarometerVisibility
4:00 PM
Jul 22
64 °FLight rain. Overcast.2 mph92%29.90 "Hg3 mi
3:00 PM66 °FOvercast.1 mph83%29.88 "Hg31 mi
2:00 PM64 °FLow clouds.2 mph90%29.89 "Hg31 mi
1:00 PM64 °FOvercast.2 mph92%29.88 "Hg22 mi
12:00 PM62 °FDrizzle. Low clouds.3 mph95%29.88 "Hg16 mi
10:00 AM60 °FOvercast.2 mph96%29.86 "Hg43 mi
9:00 AM59 °FLight freezing rain. Low clouds.2 mph98%29.86 "Hg5 mi
8:00 AM58 °FRain. Low clouds.3 mph99%29.85 "Hg3 mi
7:00 AM58 °FRain. Dense fog.3 mph99%29.85 "Hg1 mi
6:00 AM58 °FRain. Overcast.2 mph99%29.85 "Hg1 mi
4:00 AM58 °FLight freezing rain. Low clouds.2 mph99%29.85 "Hg7 mi
3:00 AM57 °FRain. Overcast.3 mph99%29.87 "Hg2 mi
2:00 AM58 °FLight rain. Low clouds.3 mph97%29.88 "Hg5 mi
1:00 AM58 °FLight rain. Overcast.2 mph97%29.89 "Hg4 mi
12:00 AM58 °FDrizzle. Overcast.2 mph96%29.90 "Hg22 mi
10:00 PM
Jul 21
58 °FDrizzle. Overcast.2 mph97%29.93 "Hg9 mi
9:00 PM58 °FLight freezing rain. Low clouds.2 mph97%29.92 "Hg8 mi
8:00 PM58 °FLight freezing rain. Overcast.2 mph95%29.92 "Hg7 mi
7:00 PM59 °FLight rain. Overcast.2 mph96%29.91 "Hg8 mi
6:00 PM59 °FLight rain. Overcast.2 mph94%29.91 "Hg7 mi
Weather by CustomWeather, © 2014

See weather overviewHow to use our weather pages